User: anonymous   Login
Location: Unspecified
(0.0000°N, 0.0000°E)
Time: 19:30:12
(UTC+00:00)
Language:

COSMOS-2408 - Orbit

View from above orbital plane
View from above orbital plane
View from above satellite
View from above satellite

Ground track
Ground track

The orbit data is extracted from the following two-line orbital elements,

1 28419U 04037A   21025.71635572  .00000030  00000-0  14398-3 0  9995
2 28419  82.4860 118.9375 0014865 264.5815  95.3570 12.45623548742993
Epoch (UTC): 25 January 2021 17:11:33
Eccentricity: 0.0014865
inclination: 82.4860°
perigee height: 1471 km
apogee height: 1494 km
right ascension of ascending node: 118.9375°
argument of perigee: 264.5815°
revolutions per day: 12.45623548
mean anomaly at epoch: 95.3570°
orbit number at epoch: 74299

The dashed part of the orbit path shows where the satellite is in the earth's shadow,  

DLR